Location: Molveno
(46.1500°N, 10.9667°E)
Time: 01:33:10
(UTC+00:00)

Cosmos 2237 Rocket - Pass Details

Date: 05 July 2020
Orbit: 835 x 850 km, 71.0° (Epoch: 11 August)

Event Time Altitude Azimuth Distance (km) Brightness Sun altitude
Exits shadow 22:14:33 22° 212° (SSW) 1,751 3.5 -19.6°
Maximum altitude 22:18:16 79° 296° (WNW) 870 2.3 -19.7°
Drops below altitude 10° 22:24:00 10° 25° (NNE) 2,487 5.4 -20.0°
Sets 22:26:29 0° 26° (NNE) 3,426 6.2 -20.1°
